Location: Buckland
(65.9785°N, 161.1281°W)
Time: 23:48:36
(UTC+00:00)

Transit 4A - Pass Details

Date: 03 December 2020
Orbit: 864 x 980 km, 66.8° (Epoch: 20 January)

Event Time Altitude Azimuth Distance (km) Brightness Sun altitude
Rises 03:33:15 0° 309° (NW) 3,693 11.4 -14.2°
Reaches altitude 10° 03:36:50 10° 290° (WNW) 2,732 11.1 -14.5°
Maximum altitude 03:40:33 16° 254° (WSW) 2,285 11.1 -14.9°
Drops below altitude 10° 03:44:13 10° 218° (SW) 2,692 11.2 -15.2°
Sets 03:47:43 0° 199° (SSW) 3,612 11.6 -15.6°
